When you browse on this site, cookies collect data to enhance your experience and personalize the content and advertising you see.
Visit our Privacy Policy to learn more. By continuing to use the site, you agree to this use of cookies and data.
  • In Austria
  • List of Countries
  • For 7 days
  • Water Temperature
  • Satellite Maps
  • Weather Map
  • News
  • Weather Widgets
  • user-avatar
    Login

    Hourly Weather Rottach-Egern

    Today, 22 April, Monday

    Time Temperature Precipitation Wind Pressure Humidity
    00:00 +4°C° 0 mm 2 mps 647 mmHg 68%
    01:00 +4°C° 0 mm 2 mps 646 mmHg 62%
    02:00 +4°C° 0 mm 2 mps 646 mmHg 63%
    03:00 +3°C° 0 mm 2 mps 646 mmHg 65%
    04:00 +3°C° 0 mm 2 mps 645 mmHg 67%
    05:00 +4°C° 0 mm 2 mps 645 mmHg 66%
    06:00 +5°C° 0 mm 2 mps 645 mmHg 64%
    07:00 +8°C° 0 mm 1 mps 646 mmHg 62%
    08:00 +11°C° 0 mm 1 mps 646 mmHg 55%
    09:00 +13°C° 0 mm 1 mps 646 mmHg 47%
    10:00 +16°C° 0 mm 1 mps 646 mmHg 40%
    11:00 +17°C° 0 mm 2 mps 646 mmHg 38%
    12:00 +18°C° 0 mm 2 mps 646 mmHg 36%
    13:00 +19°C° 0 mm 3 mps 646 mmHg 34%
    14:00 +18°C° 0 mm 3 mps 645 mmHg 36%
    15:00 +18°C° 0 mm 3 mps 644 mmHg 38%
    16:00 +17°C° 0 mm 4 mps 643 mmHg 41%
    17:00 +14°C° 0 mm 3 mps 643 mmHg 50%
    18:00 +12°C° 0 mm 2 mps 642 mmHg 60%
    19:00 +9°C° 0 mm 2 mps 641 mmHg 70%
    20:00 +8°C° 0 mm 2 mps 640 mmHg 73%
    21:00 +7°C° 0 mm 2 mps 640 mmHg 75%
    22:00 +5°C° 0 mm 2 mps 640 mmHg 77%
    23:00 +5°C° 0 mm 2 mps 640 mmHg 75%

    Tomorrow, 23 April, Tuesday

    Time Temperature Precipitation Wind Pressure Humidity
    00:00 +5°C° 0 mm 2 mps 639 mmHg 73%
    01:00 +5°C° 0 mm 2 mps 639 mmHg 71%
    02:00 +4°C° 0 mm 2 mps 638 mmHg 71%
    03:00 +4°C° 0 mm 2 mps 638 mmHg 71%
    04:00 +3°C° 0 mm 2 mps 637 mmHg 71%
    05:00 +4°C° 0 mm 2 mps 637 mmHg 68%
    06:00 +5°C° 0 mm 2 mps 638 mmHg 66%
    07:00 +7°C° 0 mm 1 mps 638 mmHg 63%
    08:00 +10°C° 0 mm 1 mps 638 mmHg 57%
    09:00 +12°C° 0 mm 1 mps 639 mmHg 51%
    10:00 +15°C° 0 mm 1 mps 639 mmHg 45%
    11:00 +16°C° 0 mm 1 mps 640 mmHg 42%
    12:00 +18°C° 0 mm 1 mps 640 mmHg 39%
    13:00 +19°C° 0 mm 1 mps 640 mmHg 35%
    14:00 +18°C° 0 mm 1 mps 640 mmHg 41%
    15:00 +16°C° 0 mm 1 mps 639 mmHg 47%
    16:00 +15°C° 0 mm 1 mps 639 mmHg 53%
    17:00 +14°C° 0 mm 1 mps 639 mmHg 58%
    18:00 +12°C° 0 mm 1 mps 639 mmHg 63%
    19:00 +11°C° 0 mm 1 mps 638 mmHg 69%
    20:00 +9°C° 0 mm 2 mps 638 mmHg 69%
    21:00 +8°C° 0 mm 2 mps 638 mmHg 69%
    22:00 +7°C° 0 mm 2 mps 638 mmHg 69%
    23:00 +6°C° 0 mm 2 mps 639 mmHg 70%

    Day after tomorrow, 24 April, Wednesday

    Time Temperature Precipitation Wind Pressure Humidity
    00:00 +5°C° 0 mm 2 mps 639 mmHg 71%
    01:00 +5°C° 0 mm 2 mps 639 mmHg 73%
    02:00 +5°C° 0 mm 2 mps 639 mmHg 73%
    03:00 +4°C° 0 mm 2 mps 639 mmHg 74%
    04:00 +4°C° 0 mm 2 mps 639 mmHg 74%
    05:00 +5°C° 0 mm 2 mps 640 mmHg 71%
    06:00 +6°C° 0 mm 2 mps 641 mmHg 68%
    07:00 +8°C° 0 mm 2 mps 641 mmHg 65%
    08:00 +10°C° 0 mm 2 mps 643 mmHg 57%
    09:00 +14°C° 0 mm 2 mps 644 mmHg 48%
    10:00 +17°C° 0 mm 2 mps 645 mmHg 40%
    11:00 +18°C° 0 mm 2 mps 645 mmHg 37%
    12:00 +19°C° 0 mm 2 mps 645 mmHg 34%
    13:00 +20°C° 0 mm 3 mps 646 mmHg 31%
    14:00 +19°C° 0 mm 3 mps 645 mmHg 32%
    15:00 +19°C° 0 mm 3 mps 645 mmHg 33%
    16:00 +19°C° 0 mm 4 mps 645 mmHg 35%
    17:00 +16°C° 0 mm 3 mps 645 mmHg 42%
    18:00 +13°C° 0 mm 3 mps 644 mmHg 50%
    19:00 +11°C° 0 mm 3 mps 644 mmHg 58%
    20:00 +10°C° 0 mm 2 mps 644 mmHg 62%
    21:00 +8°C° 0 mm 2 mps 645 mmHg 65%
    22:00 +7°C° 0 mm 2 mps 645 mmHg 69%
    23:00 +6°C° 0 mm 2 mps 645 mmHg 77%

    25 April, Thursday

    Time Temperature Precipitation Wind Pressure Humidity
    00:00 +5°C° 0 mm 1 mps 645 mmHg 84%
    01:00 +3°C° 0 mm 0 mps 645 mmHg 91%
    02:00 +4°C° 0 mm 1 mps 645 mmHg 90%
    03:00 +4°C° 0 mm 1 mps 645 mmHg 89%
    04:00 +3°C° 0 mm 2 mps 645 mmHg 87%
    05:00 +5°C° 0 mm 2 mps 645 mmHg 81%
    06:00 +7°C° 0 mm 2 mps 645 mmHg 74%
    07:00 +8°C° 0 mm 2 mps 646 mmHg 67%
    08:00 +12°C° 0 mm 2 mps 646 mmHg 57%
    09:00 +14°C° 0 mm 3 mps 647 mmHg 47%
    10:00 +17°C° 0 mm 3 mps 648 mmHg 36%
    11:00 +18°C° 0 mm 3 mps 648 mmHg 34%
    12:00 +19°C° 0 mm 3 mps 648 mmHg 32%
    13:00 +20°C° 0 mm 3 mps 648 mmHg 30%
    14:00 +20°C° 0 mm 3 mps 648 mmHg 31%
    15:00 +19°C° 0 mm 3 mps 648 mmHg 32%
    16:00 +19°C° 0 mm 3 mps 648 mmHg 32%
    17:00 +17°C° 0 mm 3 mps 647 mmHg 40%
    18:00 +15°C° 0 mm 2 mps 646 mmHg 47%
    19:00 +12°C° 0 mm 2 mps 646 mmHg 55%
    20:00 +10°C° 0 mm 2 mps 646 mmHg 57%
    21:00 +9°C° 0 mm 2 mps 646 mmHg 59%
    22:00 +8°C° 0 mm 3 mps 646 mmHg 62%
    23:00 +8°C° 0 mm 2 mps 646 mmHg 65%

    26 April, Friday

    Time Temperature Precipitation Wind Pressure Humidity
    00:00 +7°C° 0 mm 2 mps 646 mmHg 68%
    01:00 +7°C° 0 mm 2 mps 645 mmHg 71%
    02:00 +6°C° 0 mm 2 mps 645 mmHg 77%
    03:00 +6°C° 0 mm 1 mps 645 mmHg 82%
    04:00 +5°C° 0 mm 1 mps 645 mmHg 87%
    05:00 +6°C° 0 mm 1 mps 645 mmHg 85%
    06:00 +6°C° 0 mm 1 mps 645 mmHg 82%
    07:00 +7°C° 0 mm 1 mps 646 mmHg 79%
    08:00 +6°C° 0 mm 2 mps 646 mmHg 80%
    09:00 +5°C° 0 mm 3 mps 646 mmHg 80%
    10:00 +5°C° 0 mm 3 mps 647 mmHg 80%
    11:00 +4°C° 1.5 mm 3 mps 646 mmHg 85%
    12:00 +2°C° 1.5 mm 3 mps 646 mmHg 90%
    13:00 +1°C° 1.5 mm 3 mps 646 mmHg 95%
    14:00 +1°C° 1.8 mm 3 mps 646 mmHg 94%
    15:00 +2°C° 1.8 mm 2 mps 647 mmHg 94%
    16:00 +3°C° 1.8 mm 1 mps 647 mmHg 93%
    17:00 +3°C° 1.4 mm 1 mps 647 mmHg 94%
    18:00 +2°C° 1.4 mm 1 mps 648 mmHg 95%
    19:00 +2°C° 1.4 mm 1 mps 648 mmHg 96%
    20:00 +2°C° 0.4 mm 1 mps 648 mmHg 96%
    21:00 +2°C° 0.4 mm 1 mps 649 mmHg 96%
    22:00 +2°C° 0.4 mm 1 mps 649 mmHg 96%
    23:00 +2°C° 0.7 mm 1 mps 649 mmHg 95%

    27 April, Saturday

    Time Temperature Precipitation Wind Pressure Humidity
    00:00 +1°C° 0.7 mm 1 mps 649 mmHg 95%
    01:00 +1°C° 0.7 mm 1 mps 649 mmHg 95%
    02:00 -1°C° 0.9 mm 2 mps 649 mmHg 95%
    03:00 -1°C° 0.9 mm 2 mps 649 mmHg 96%
    04:00 -1°C° 0.9 mm 2 mps 650 mmHg 96%
    05:00 -1°C° 0.8 mm 2 mps 650 mmHg 96%
    06:00 +1°C° 0.8 mm 2 mps 650 mmHg 96%
    07:00 +1°C° 0.8 mm 2 mps 650 mmHg 96%
    08:00 +1°C° 0.8 mm 2 mps 651 mmHg 95%
    09:00 +2°C° 0.8 mm 2 mps 651 mmHg 94%
    10:00 +2°C° 0.8 mm 2 mps 651 mmHg 94%
    11:00 +4°C° 0.5 mm 2 mps 651 mmHg 90%
    12:00 +5°C° 0.5 mm 2 mps 652 mmHg 87%
    13:00 +6°C° 0.5 mm 2 mps 652 mmHg 84%
    14:00 +6°C° 0.5 mm 2 mps 652 mmHg 85%
    15:00 +7°C° 0.5 mm 1 mps 652 mmHg 86%
    16:00 +7°C° 0.5 mm 1 mps 652 mmHg 87%
    17:00 +6°C° 0.5 mm 1 mps 652 mmHg 89%
    18:00 +5°C° 0.5 mm 1 mps 652 mmHg 91%
    19:00 +5°C° 0.5 mm 1 mps 652 mmHg 93%
    20:00 +4°C° 0.1 mm 1 mps 653 mmHg 93%
    21:00 +3°C° 0.1 mm 1 mps 653 mmHg 94%
    22:00 +2°C° 0.1 mm 2 mps 653 mmHg 95%
    23:00 +2°C° 0.2 mm 2 mps 654 mmHg 94%
    Show more